Lid_Strength_Index
1 1 1 1 1 1 1 1 0 0 -0 -0 -0 -0 -0 0 0 0 1 1 1 1
1 1 1 1 0 1 0 0 0 0 0 0 -0 -0 -0 0 1 0 0 1 1 1
1 1 1 0 1 1 0 0 -0 0 0 0 0 0 0 0 0 1 1 1 1 1
1 1 1 1 1 1 0 0 0 0 0 0 0 0 0 0 0 1 1 0 1 1
1 1 1 1 1 0 1 0 0 0 0 1 0 0 1 1 1 1 1 1 1 1
1 1 1 1 1 1 1 1 0 0 1 1 1 1 1 1 1 1 1 1 1 1
2 1 1 1 1 1 1 1 1 1 1 1 1 1 1 1 1 1 1 1 1 1
1 1 1 1 1 1 1 1 1 1 1 1 1 1 1 1 1 1 1 1 1 1
2 1 1 1 1 1 1 1 1 1 1 1 1 3 4 1 1 1 1 1 1 1
2 2 2 1 1 1 1 1 1 1 1 1 1 5 6 4 1 1 1 1 1 1
2 2 2 2 2 2 1 2 2 1 1 1 1 6 7 6 1 1 1 1 1 1
2 2 2 2 2 2 2 2 2 1 1 2 1 7 8 7 2 1 1 1 1 1
1 2 2 2 2 1 1 2 1 2 1 2 1 6 9 7 1 2 2 1 1 5
2 2 2 2 1 2 2 2 2 2 1 1 1 1 10 11 1 2 2 2 2 1